Find Starlink 32267

NORAD ID: 60363 Int'l Des: 2024-138 Owner: SPXS Country: US Constellation: starlink operational
LEOCIRCULAR

Current View

Loading 3D Globe...

About Starlink 32267

Starlink 32267 (NORAD 60363) is a starlink constellation satellite (v2 mini) launched Aug 4, 2024 by SPXS of US. It operates in LEO, CIRCULAR orbit with a mass of 730.00 kg.

About Starlink 32267

Description loading...

Upcoming Passes

Passes for default location (London). Set your location on the main map for personalized predictions.

Altitude History

Loading altitude history...

Two-Line Element Set

1 60363U 24138J 26176.19065618 .00000739 00000-0 37064-4 0 9997
2 60363 53.1596 170.4750 0001132 84.6257 275.4873 15.30196320107084
Epoch: Jun 25, 2026 • Age: 5 hours

Current Status

Altitude 476.1 km
Velocity 7.63 km/s
Sub-Earth Point 28.13°N, 137.95°E
Launch Date Aug 4, 2024
Age 1.8 years
Type internet

Technical Details

Classification Payload
Mass 730.00 kg
Dry Mass 700.00 kg
Total Mass 730.00 kg
Length 0.30 m
Diameter 4.10 m
Span 29.00 m
Shape Box + pan
Manufacturer SPXS
Bus Type Starlink V2M
Phase Status In Orbit
Owner/State SPXS/US

Most Searched